FW9143 Weather Reports


time (UTC)temp
C
wind
direction
speed
KPH
gust
KPH
rain 1hr
cm
rain 24hr
cm
rain mn
cm
humidity
%
barometer
mb
20260502194016 22 294 14.5 24.1 0.00 0.00 0.00 41 1018.4
20260502193035 21 292 12.9 20.9 0.00 0.00 0.00 43 1018.4
20260502192016 21 304 11.3 24.1 0.00 0.00 0.00 41 1018.3
20260502191015 21 268 9.7 20.9 0.00 0.00 0.00 43 1018.5
20260502190015 21 318 11.3 24.1 0.00 0.00 0.00 42 1018.5
20260502185016 21 282 12.9 22.5 0.00 0.00 0.00 44 1018.7
20260502184016 21 284 12.9 22.5 0.00 0.00 0.00 45 1018.8
20260502182015 21 305 16.1 25.7 0.00 0.00 0.00 44 1018.9
20260502181015 20 290 11.3 25.7 0.00 0.00 0.00 47 1018.9
20260502164016 20 297 11.3 19.3 0.00 0.00 0.00 46 1019.7
20260502163036 20 292 12.9 24.1 0.00 0.00 0.00 47 1019.7
20260502162015 20 338 6.4 16.1 0.00 0.00 0.00 48 1019.7
20260502161016 19 282 4.8 17.7 0.00 0.00 0.00 52 1019.7
20260502152015 17 238 3.2 9.7 0.00 0.00 0.00 58 1020.0
20260502151036 16 215 4.8 11.3 0.00 0.00 0.00 60 1020.1
20260502123016 6 176 1.6 3.2 0.00 0.00 0.00 96 1019.4
20260502122015 5 276 1.6 3.2 0.00 0.00 0.00 96 1019.4
20260502121037 5 276 1.6 3.2 0.00 0.00 0.00 96 1019.2
20260502115016 5 276 0.0 1.6 0.00 0.00 0.00 96 1019.0
20260502114016 5 276 0.0 1.6 0.00 0.00 0.00 96 1018.7
20260502113015 5 0.0 0.0 0.00 0.00 0.00 96 1018.6
20260502112016 5 0.0 1.6 0.00 0.00 0.00 96 1018.5
20260502111016 5 0.0 0.0 0.00 0.00 0.00 96 1018.4
20260502110035 5 0.0 0.0 0.00 0.00 0.00 96 1018.3
20260502105018 5 276 0.0 3.2 0.00 0.00 0.00 96 1018.2
20260502104016 5 276 0.0 3.2 0.00 0.00 0.00 96 1018.2
20260502103015 5 0.0 0.0 0.00 0.00 0.00 96 1018.1
20260502102016 6 276 0.0 1.6 0.00 0.00 0.00 95 1018.1
20260502101015 6 276 1.6 3.2 0.00 0.00 0.00 96 1018.0
20260502091016 6 276 0.0 3.2 0.00 0.00 0.00 95 1017.8
20260502071015 8 182 0.0 1.6 0.00 0.00 0.00 93 1017.6
20260502070015 8 188 1.6 3.2 0.00 0.00 0.00 93 1017.4
20260502065015 8 279 3.2 4.8 0.00 0.00 0.00 93 1017.5
20260502064015 8 279 1.6 3.2 0.00 0.00 0.00 92 1017.7
20260502063015 9 277 3.2 4.8 0.00 0.00 0.00 92 1017.8
20260502062016 10 167 0.0 1.6 0.00 0.00 0.00 91 1017.7
20260502061016 10 0.0 1.6 0.00 0.00 0.00 91 1017.7
20260502060035 10 179 1.6 4.8 0.00 0.00 0.00 90 1017.8
20260502055015 10 282 0.0 3.2 0.00 0.00 0.00 89 1017.8
20260502054016 10 10 1.6 3.2 0.00 0.00 0.00 90 1017.9
20260502053015 10 60 1.6 6.4 0.00 0.00 0.00 90 1017.9
20260502052035 10 199 1.6 3.2 0.00 0.00 0.00 89 1017.8
20260502051015 11 223 0.0 3.2 0.00 0.00 0.00 88 1017.7
20260502050015 11 288 0.0 3.2 0.00 0.00 0.00 88 1017.7
20260502045015 11 288 1.6 3.2 0.00 0.00 0.00 88 1017.6
20260502044015 11 288 1.6 3.2 0.00 0.00 0.00 88 1017.6
20260502043017 11 285 1.6 3.2 0.00 0.00 0.00 87 1017.6
20260502042015 11 283 0.0 3.2 0.00 0.00 0.00 86 1017.6
20260502041015 11 0.0 1.6 0.00 0.00 0.00 84 1017.6
20260502040016 11 283 0.0 3.2 0.00 0.00 0.00 82 1017.5
20260502035016 12 283 0.0 3.2 0.00 0.00 0.00 81 1017.4
20260502034015 12 283 0.0 4.8 0.00 0.00 0.00 81 1017.4
20260502033015 12 281 0.0 3.2 0.00 0.00 0.00 78 1017.4
20260502032017 12 281 0.0 3.2 0.00 0.00 0.00 78 1017.4
20260502031015 13 281 1.6 1.6 0.00 0.00 0.00 74 1017.3
20260502030016 13 285 0.0 3.2 0.00 0.00 0.00 68 1017.3
20260502025035 13 294 3.2 4.8 0.00 0.00 0.00 69 1017.2
20260502024055 14 289 4.8 6.4 0.00 0.00 0.00 67 1017.1
20260502023015 14 313 1.6 3.2 0.00 0.00 0.00 66 1016.9
20260502022015 14 312 1.6 3.2 0.00 0.00 0.00 63 1016.8
20260502021015 15 330 1.6 3.2 0.00 0.00 0.00 63 1016.7
20260502020015 15 351 0.0 1.6 0.00 0.00 0.00 62 1016.7
20260502015015 16 0.0 0.0 0.00 0.00 0.00 60 1016.7
20260502014015 16 351 0.0 1.6 0.00 0.00 0.00 57 1016.5
20260502013015 16 0.0 1.6 0.00 0.00 0.00 55 1016.4
20260502012016 17 2 1.6 3.2 0.00 0.00 0.00 53 1016.2
20260502011115 17 31 1.6 4.8 0.00 0.00 0.00 48 1016.2
20260502010016 17 24 1.6 3.2 0.00 0.00 0.00 48 1016.2
20260502005015 18 22 3.2 4.8 0.00 0.00 0.00 46 1015.9
20260502004016 18 33 3.2 4.8 0.00 0.00 0.00 46 1015.7
20260502003015 18 38 1.6 4.8 0.00 0.00 0.00 45 1015.5
20260502002015 18 16 3.2 4.8 0.00 0.00 0.00 43 1015.3
20260502001015 19 353 3.2 9.7 0.00 0.00 0.00 42 1015.0
20260502000015 19 356 3.2 6.4 0.00 0.00 0.00 43 1014.6
20260501235116 20 1 4.8 11.3 0.00 0.00 0.00 41 1014.4
20260501234015 20 1 6.4 8.0 0.00 0.00 0.00 41 1014.4
20260501233015 20 359 4.8 9.7 0.00 0.00 0.00 41 1014.1
20260501232018 20 353 6.4 14.5 0.00 0.00 0.00 41 1013.9
20260501231041 21 3 4.8 12.9 0.00 0.00 0.00 42 1013.7
20260501230016 21 3 6.4 14.5 0.00 0.00 0.00 42 1013.7
20260501225020 21 11 4.8 11.3 0.00 0.00 0.00 44 1013.5
20260501224015 21 17 4.8 11.3 0.00 0.00 0.00 44 1013.5
20260501223015 21 36 8.0 19.3 0.00 0.00 0.00 42 1013.5
20260501222035 21 17 6.4 14.5 0.00 0.00 0.00 42 1013.8
20260501221018 21 7 4.8 12.9 0.00 0.00 0.00 43 1013.7
20260501220018 21 25 3.2 9.7 0.00 0.00 0.00 47 1013.6
20260501215018 21 350 4.8 8.0 0.00 0.00 0.00 45 1013.6
20260501214018 21 16 6.4 11.3 0.00 0.00 0.00 44 1013.4
20260501213018 21 26 3.2 6.4 0.00 0.00 0.00 44 1013.3
20260501212016 21 25 4.8 14.5 0.00 0.00 0.00 43 1013.6
20260501211018 21 339 6.4 16.1 0.00 0.00 0.00 43 1013.6
20260501210038 21 2 6.4 14.5 0.00 0.00 0.00 41 1013.7
20260501205018 21 1 4.8 8.0 0.00 0.00 0.00 43 1013.6
20260501204038 21 9 6.4 12.9 0.00 0.00 0.00 43 1013.7
20260501203018 21 338 8.0 17.7 0.00 0.00 0.00 40 1014.0
20260501202018 21 357 8.0 14.5 0.00 0.00 0.00 42 1014.1
20260501201018 21 44 4.8 16.1 0.00 0.00 0.00 43 1014.5
20260501200018 22 342 9.7 24.1 0.00 0.00 0.00 40 1014.7
20260501195016 22 10 9.7 19.3 0.00 0.00 0.00 39 1015.0